This demonstration page uses our WeatherBlox Daily Observations layout. Learn more.

Left ArrowRight Arrow

Hourly Observations for June 15, 2021

Temp ( °F °C ) Dew Point ( °F °C ) Humidity (%) Winds ( mph kmh ) Pressure ( in mb ) Visibility ( mi km ) Precip ( " mm )
12:54 am 00:54 Clear 79 26.1 61 16.1 54 54 E 3 6 30.03 1017 10 16 N/A
1:54 am 01:54 Clear 76 24.4 60 15.6 58 58 E 3 6 30.04 1017 10 16 N/A
2:54 am 02:54 Clear 72 22.2 60 15.6 66 66 NNE 6 9 30.05 1018 10 16 N/A
3:54 am 03:54 Clear 70 21.1 60 15.6 71 71 N N/A 30.05 1018 10 16 N/A
4:54 am 04:54 Clear 70 21.1 59 15 68 68 N N/A 30.06 1018 10 16 N/A
5:54 am 05:54 Clear 73 22.8 58 14.4 59 59 E 6 9 30.06 1018 10 16 0.00 0.00
6:54 am 06:54 Mostly Sunny 73 22.8 59 15 62 62 ENE 5 7 30.07 1018 10 16 N/A
7:54 am 07:54 Sunny 76 24.4 59 15 56 56 E 5 7 30.07 1018 10 16 N/A
8:54 am 08:54 Sunny 79 26.1 60 15.6 52 52 ESE 9 15 30.07 1018 10 16 N/A
9:54 am 09:54 Sunny 83 28.3 62 16.7 49 49 ESE 8 13 30.08 1019 10 16 N/A
10:54 am 10:54 Sunny 86 30 62 16.7 45 45 E 8 13 30.07 1018 10 16 N/A
11:54 am 11:54 Mostly Sunny 87 30.6 61 16.1 42 42 ESE 9 15 30.06 1018 10 16 N/A
12:54 pm 12:54 Mostly Sunny 89 31.7 61 16.1 39 39 ESE 7 11 30.05 1018 10 16 N/A
1:54 pm 13:54 Mostly Sunny 89 31.7 62 16.7 41 41 ESE 8 13 30.04 1017 10 16 N/A
2:54 pm 14:54 Sunny 88 31.1 62 16.7 42 42 ESE 6 9 30.03 1017 10 16 N/A
3:54 pm 15:54 Mostly Sunny 91 32.8 63 17.2 39 39 SE 9 15 30.01 1016 10 16 N/A
4:54 pm 16:54 Mostly Sunny 92 33.3 65 18.3 41 41 SSE 12 19 29.99 1016 10 16 N/A
5:54 pm 17:54 Sunny 92 33.3 65 18.3 41 41 SSE 9 15 29.98 1015 10 16 N/A
6:54 pm 18:54 Sunny 91 32.8 64 17.8 41 41 SE 12 19 29.98 1015 10 16 N/A
7:54 pm 19:54 Sunny 89 31.7 63 17.2 42 42 ESE 8 13 29.97 1015 10 16 N/A
8:54 pm 20:54 Sunny 86 30 62 16.7 45 45 ESE 8 13 29.98 1015 10 16 N/A
9:54 pm 21:54 Clear 84 28.9 62 16.7 48 48 ESE 8 13 29.99 1016 10 16 N/A
10:54 pm 22:54 Clear 83 28.3 61 16.1 48 48 SE 7 11 30.00 1016 10 16 N/A
11:54 pm 23:54 Clear 81 27.2 60 15.6 49 49 ESE 6 9 30.00 1016 10 16 N/A

Powered by AerisWeather